Location: ????????
(48.4751°N, 37.6926°E)
Time: 02:58:34
(UTC+00:00)

Cosmos 2082 Rocket - Pass Details

Date: 20 January 2021
Orbit: 832 x 855 km, 71.0° (Epoch: 24 February)

Event Time Altitude Azimuth Distance (km) Brightness Sun altitude
Rises 17:51:25 0° 332° (NNW) 3,437 5.8 -36.3°
Reaches altitude 10° 17:53:53 10° 333° (NNW) 2,497 5.0 -36.7°
Enters shadow 17:55:40 21° 334° (NNW) 1,843 4.2 -37.0°
